Location: Bartshausen
(51.8454°N, 9.8167°E)
Time: 23:49:22
(UTC+00:00)

Cosmos 1908 Rocket - Visible Passes

Search period start: 15 February 2026 00:00
Search period end: 25 February 2026 00:00
Orbit: 600 x 624 km, 82.5° (Epoch: 14 February)

Date Brightness Start Highest point End Pass type
(mag) Time Alt. Az. Time Alt. Az. Time Alt. Az.
15 Feb 4.0 04:22:23 10° S 04:26:41 62° E 04:31:02 10° NNE visible
15 Feb 4.9 06:01:46 10° WSW 06:04:51 19° WNW 06:07:58 10° NNW visible
16 Feb 6.6 03:02:37 10° ESE 03:04:44 13° E 03:06:49 10° NE visible
16 Feb 3.4 04:37:24 10° SSW 04:41:47 81° WNW 04:46:13 10° N visible
17 Feb 6.0 03:16:17 10° SE 03:19:34 21° E 03:22:52 10° NE visible
17 Feb 3.7 04:52:42 10° SSW 04:56:57 50° WNW 05:01:16 10° N visible
18 Feb 5.2 03:31:13 14° SSE 03:34:29 33° E 03:38:26 10° NNE visible
18 Feb 4.3 05:08:18 10° SW 05:12:12 31° WNW 05:16:11 10° N visible
19 Feb 4.2 03:47:20 27° SSE 03:49:28 53° E 03:53:48 10° NNE visible
19 Feb 4.8 05:24:24 11° WSW 05:27:33 21° WNW 05:30:56 10° NNW visible
20 Feb 6.6 02:26:07 10° E 02:27:35 12° E 02:29:08 10° ENE visible
20 Feb 3.5 04:03:10 44° S 04:04:33 88° E 04:09:00 10° N visible
20 Feb 5.3 05:40:38 10° W 05:42:58 14° WNW 05:45:20 10° NNW visible
21 Feb 6.0 02:41:46 18° E 02:42:24 19° E 02:45:28 10° NE visible
21 Feb 3.5 04:18:49 47° WSW 04:19:42 57° WNW 04:24:05 10° N visible
22 Feb 5.3 02:57:18 29° E 02:57:18 29° E 03:01:07 10° NNE visible
22 Feb 4.1 04:34:20 34° W 04:34:56 36° WNW 04:39:02 10° N visible
23 Feb 4.6 03:12:44 44° ENE 03:12:44 44° ENE 03:16:31 10° NNE visible
23 Feb 4.7 04:49:46 23° WNW 04:50:14 24° WNW 04:53:50 10° NNW visible
24 Feb 4.0 03:28:06 58° NNE 03:28:06 58° NNE 03:31:46 10° NNE visible
24 Feb 5.2 05:05:08 16° WNW 05:05:38 16° WNW 05:08:22 10° NNW visible
